Location: Groß Eilstorf
(52.8200°N, 9.4552°E)
Time: 21:35:56
(UTC+00:00)

Meteor 2-10 Rocket - Pass Details

Date: 15 May 2026
Orbit: 733 x 881 km, 81.2° (Epoch: 10 June)

Event Time Altitude Azimuth Distance (km) Brightness Sun altitude
Rises 23:21:09 0° 347° (NNW) 3,346 8.3 -18.1°
Reaches altitude 10° 23:23:31 10° 350° (N) 2,432 7.3 -18.1°
Maximum altitude 23:29:03 73° 75° (ENE) 887 3.8 -18.1°
Enters shadow 23:32:15 27° 155° (SSE) 1,593 4.6 -18.1°
